Inquirer Daily News

Weather

Get conditions and forecasts for any City, State, ZIP code or Country:  
Trenton, NJ
on Tuesday, February 12, 2013

Tuesday
Previous Day Next Day
Daily Summary
 ActualAverageRecord
Temperature
Mean Temperature °F 33°F  
Max Temperature 45°F 41°F 68°F (1999)
Min Temperature 30°F 25°F -2°F (1907)
Degree Days
Heating Degree Days 27 32  
Month to date heating degree days 422 390  
Since 1 July heating degree days 3130 3336  
Cooling Degree Days 0 0  
Month to date cooling degree days 0 0  
Year to date cooling degree days 0 0  
Moisture
Dew Point 24°F   
Average Humidity 67    
Maximum Humidity 89    
Minimum Humidity 45    
Precipitation
Precipitation 0.00 in 0.09 in 1.70 in (1988)
Month to date precipitation 0.77 0.91  
Year to date precipitation 3.59 4.07  
Wind
Wind Speed 9 mph   
Max Wind Speed 23 mph   
Max Gust Speed 36 mph   
Visibility 10 miles   
Events     

Key: T is trace of precipitation, MM is missing value
Source: NWS Daily Summary
Time(EST)TemperatureDew PointHumidity Pressure Visibility Wind DirectionWind SpeedGust SpeedPrecipitationEvents Conditions
12:53 AM 42.1°F 37.0°F 82% 29.75 in 9.0 miles WNW 5.8 mph - N/A   Clear
1:53 AM 41.0°F 30.0°F 65% 29.76 in 10.0 miles NW 11.5 mph 17.3 mph N/A   Clear
2:53 AM 41.0°F 26.1°F 55% 29.77 in 10.0 miles NW 11.5 mph - N/A   Clear
3:53 AM 41.0°F 25.0°F 53% 29.79 in 10.0 miles NNW 15.0 mph 23.0 mph N/A   Clear
4:53 AM 41.0°F 24.1°F 51% 29.79 in 10.0 miles NNW 15.0 mph 35.7 mph N/A   Clear
5:53 AM 39.9°F 23.0°F 51% 29.83 in 10.0 miles NW 11.5 mph 19.6 mph N/A   Scattered Clouds
6:53 AM 39.9°F 23.0°F 51% 29.85 in 10.0 miles NW 6.9 mph - N/A   Scattered Clouds
7:53 AM 39.9°F 23.0°F 51% 29.88 in 10.0 miles WNW 10.4 mph - N/A   Overcast
8:53 AM 41.0°F 23.0°F 49% 29.90 in 10.0 miles NW 8.1 mph - N/A   Overcast
9:53 AM 43.0°F 24.1°F 47% 29.90 in 10.0 miles WNW 11.5 mph 18.4 mph N/A   Partly Cloudy
10:53 AM 43.0°F 24.1°F 47% 29.91 in 10.0 miles WNW 15.0 mph 26.5 mph N/A   Partly Cloudy
11:53 AM 44.1°F 24.1°F 45% 29.92 in 10.0 miles NNW 17.3 mph 27.6 mph N/A   Clear
12:53 PM 44.1°F 24.1°F 45% 29.91 in 10.0 miles NNW 15.0 mph 24.2 mph N/A   Clear
1:53 PM 45.0°F 24.1°F 44% 29.91 in 10.0 miles NW 16.1 mph 23.0 mph N/A   Clear
2:53 PM 44.1°F 24.1°F 45% 29.89 in 10.0 miles NNW 17.3 mph 27.6 mph N/A   Clear
3:53 PM 42.1°F 23.0°F 47% 29.85 in 10.0 miles North 10.4 mph - N/A   Clear
4:53 PM 41.0°F 23.0°F 49% 29.90 in 10.0 miles NW 10.4 mph - N/A   Clear
5:53 PM 39.0°F 23.0°F 53% 29.96 in 10.0 miles NNW 6.9 mph - N/A   Scattered Clouds
6:53 PM 37.0°F 23.0°F 57% 29.97 in 10.0 miles Calm Calm - N/A   Clear
7:53 PM 37.0°F 23.0°F 57% 29.96 in 10.0 miles NW 3.5 mph - N/A   Clear
8:53 PM 34.0°F 23.0°F 64% 29.93 in 10.0 miles Calm Calm - N/A   Clear
9:53 PM 33.1°F 21.9°F 64% 29.92 in 10.0 miles Calm Calm - N/A   Clear
10:53 PM 32.0°F 21.9°F 66% 29.93 in 10.0 miles West 3.5 mph - N/A   Clear
11:53 PM 33.1°F 23.0°F 66% 29.95 in 10.0 miles West 4.6 mph - N/A   Clear
Astronomy
Sunrise:06:56 AM (EST) Moon Rise:07:51 AM (EST)2/12
Sunset:05:31 PM (EST) Moon Set:08:30 PM (EST)2/12
Moon Phase
Feb. 12 Feb. 17 Feb. 25 Mar. 04 Mar. 11

Copyright © 2014 The Weather Underground, Inc.